Details for All Nippon Cargo at RJAA




Go Back


Latest METAR
Local Time

RJAA 240730Z 15007KT 110V170 9999 FEW015 FEW030CB 23/18 Q1004 NOSIG RMK 1CU015 1CB030 A2965 CB 40KM NW-N STNR

24/05/2018, 16:47:56

Description
Results
All Nippon Cargo Logo
Number of Pilots based at RJAA
0 Pilots Based here
Number of All Nippon Cargo Flights Departed from RJAA
0 Flights Departed
Number of All Nippon Cargo Flights Arrived at RJAA
0 Flights Arrived
Number of All Nippon Cargo Schedules Departing from RJAA
16 Schedules
Number of All Nippon Cargo Schedules Arriving at RJAA
11 Schedules
Number of All Nippon Cargo Schedules Departing from RJAA availible today
10 Schedules Today
Number of All Nippon Cargo Schedules Arriving at RJAA availible today
9 Schedules Today
Average Landing Rate at RJAA
-87 fpm
All Nippon Cargo Average Landing Rate at RJAA
0 fpm
Total Fuel Purchased at RJAA by All Nippon Cargo
0.00 kgs / 0.00 lbs

Pilots Based at RJAA


Pilot ID
Pilot Name
Pilot Rank
No. of Flights
No. of Flying Hours
There are no pilots assigned to this hub!   Will you be the first?
Content